This demonstration page uses our WeatherBlox Daily Observations layout. Learn more.

Left ArrowRight Arrow

Hourly Observations for May 27, 2018

Temp ( °F °C ) Dew Point ( °F °C ) Humidity (%) Winds ( mph kmh ) Pressure ( in mb ) Visibility ( mi km ) Precip ( " mm )
12:53 am 00:53 Clear 61 16.1 55 12.8 81 81 Calm 29.99 1016 10 16 0.00 0.00
1:53 am 01:53 Clear 61 16.1 56 13.3 84 84 NNW 3 6 29.99 1016 10 16 0.00 0.00
2:53 am 02:53 Clear 59 15 56 13.3 90 90 Calm 29.99 1016 10 16 0.00 0.00
3:53 am 03:53 Clear 59 15 51 10.6 75 75 NNW 3 6 29.99 1016 10 16 0.00 0.00
4:53 am 04:53 Clear 59 15 49 9.4 69 69 N 6 9 29.99 1016 10 16 0.00 0.00
5:53 am 05:53 Sunny 60 15.6 48 8.9 65 65 NNW 7 11 29.99 1016 10 16 0.00 0.00
6:53 am 06:53 Sunny 62 16.7 48 8.9 60 60 NW 9 15 29.99 1016 10 16 0.00 0.00
7:53 am 07:53 Sunny 67 19.4 47 8.3 49 49 NNW 10 17 29.99 1016 10 16 0.00 0.00
8:53 am 08:53 Sunny 71 21.7 45 7.2 39 39 NNW 13 20 29.98 1015 10 16 0.00 0.00
9:53 am 09:53 Sunny 75 23.9 47 8.3 37 37 NW 9 15 29.97 1015 10 16 0.00 0.00
10:53 am 10:53 Sunny 78 25.6 45 7.2 31 31 NNW 10 17 29.96 1015 10 16 0.00 0.00
11:53 am 11:53 Sunny 82 27.8 43 6.1 25 25 N 14 22 29.94 1014 10 16 0.00 0.00
12:53 pm 12:53 Sunny with Light Rain 85 29.4 44 6.7 24 24 N 14 22 29.91 1013 10 16 0.00 0.03
1:53 pm 13:53 Sunny 87 30.6 43 6.1 21 21 N 16 26 29.90 1013 10 16 0.00 0.03
2:53 pm 14:53 Sunny 89 31.7 45 7.2 22 22 N 9 15 29.89 1012 10 16 0.00 0.00
3:53 pm 15:53 Sunny 91 32.8 45 7.2 20 20 NE 14 22 29.88 1012 10 16 0.00 0.00
4:53 pm 16:53 Sunny 91 32.8 43 6.1 19 19 NNE 15 24 29.86 1011 10 16 0.00 0.00
5:53 pm 17:53 Sunny 91 32.8 43 6.1 19 19 NE 13 20 29.85 1011 10 16 0.00 0.00
6:53 pm 18:53 Sunny 90 32.2 43 6.1 19 19 NNE 8 13 29.85 1011 10 16 0.00 0.00
7:53 pm 19:53 Sunny 86 30 47 8.3 26 26 NNW 6 9 29.85 1011 10 16 0.00 0.00
8:53 pm 20:53 Clear 81 27.2 49 9.4 33 33 NW 6 9 29.85 1011 10 16 0.00 0.00
9:53 pm 21:53 Clear 77 25 51 10.6 40 40 N 6 9 29.87 1012 10 16 0.00 0.00
10:53 pm 22:53 Clear 73 22.8 54 12.2 51 51 N 5 7 29.90 1013 10 16 0.00 0.00
11:53 pm 23:53 Clear 70 21.1 54 12.2 57 57 NW 7 11 29.91 1013 10 16 0.00 0.00

Powered by AerisWeather